Weather History for Prestonsburg, KY

Change the Weather History Date:

Tuesday, January 22, 2013

  Actual Average (KJKL) Record (KJKL)
Temperature  
Mean Temperature 17 °F 35 °F  
Max Temperature 23 °F 43 °F 77 °F (1999)
Min Temperature 11 °F 27 °F 0 °F (2014)
Degree Days  
Heating Degree Days 48 30  
Month to date heating degree days 660  
Since 1 July heating degree days 2294  
Cooling Degree Days 0 0  
Month to date cooling degree days 0  
Year to date cooling degree days 0  
Moisture  
Dew Point -1 °F    
Average Humidity 45    
Maximum Humidity 60    
Minimum Humidity 31    
Precipitation  
Precipitation 0.00 in 0.11 in 0.75 in (2006)
Month to date precipitation 2.53  
Year to date precipitation 2.53  
Snow  
Snow 0.00 in 0.20 in 1.60 in (2005)
Month to date snowfall 4.8  
Since 1 July snowfall 10.3  
Snow Depth -    
Sea Level Pressure  
Sea Level Pressure 30.26 in    
Wind  
Wind Speed 7 mph (WNW)    
Max Wind Speed 12 mph    
Max Gust Speed 21 mph    
Visibility 10 miles    
Events      
T = Trace of Precipitation, MM = Missing Value Source: NWS Daily Summary

Daily Weather History Graph

Daily Weather History Graph

Search for Another Location

Airport:

Trip Planner

Search our weather history database for the weather conditions in past years. The results will help you decide how hot, cold, wet, or windy it might be!

Date:

Astronomy

Jan. 22, 2013 Rise Set
Actual Time 7:41 AM EST 5:43 PM EST
Civil Twilight 7:13 AM EST 6:11 PM EST
Nautical Twilight 6:41 AM EST 6:43 PM EST
Astronomical Twilight 6:10 AM EST 7:14 PM EST
Moon 2:06 PM EST (1/22) 4:01 AM EST (1/22)
Length of Visible Light 10h 58m
Length of Day
10h 01m
Waxing Gibbous, 82% of the Moon is Illuminated
Jan 22
Waxing Gibbous
Jan 26
Full
Feb 3
Last Quarter
Feb 10
New
Feb 17
First Quarter

Hourly Weather History & Observations

Time (EST) Temp. Windchill Dew Point Humidity Pressure Visibility Wind Dir Wind Speed Gust Speed Precip Events Conditions
12:15 AM 19.6 °F 10.6 °F 2.8 °F 48% 30.16 in 10.0 mi WNW 6.9 mph 17.3 mph N/A   Clear
12:35 AM 19.0 °F 6.8 °F 2.3 °F 48% 30.17 in 10.0 mi NW 11.5 mph 20.7 mph N/A   Clear
12:55 AM 18.3 °F 7.3 °F 2.3 °F 50% 30.16 in 10.0 mi NNW 9.2 mph - N/A   Clear
1:15 AM 17.6 °F 5.7 °F 1.8 °F 50% 30.17 in 10.0 mi NW 10.4 mph 19.6 mph N/A   Clear
1:35 AM 17.6 °F 6.4 °F 1.4 °F 49% 30.17 in 10.0 mi NW 9.2 mph 18.4 mph N/A   Clear
1:55 AM 16.7 °F 6.2 °F 1.6 °F 52% 30.18 in 10.0 mi NW 8.1 mph - N/A   Clear
2:15 AM 16.3 °F 4.1 °F 1.0 °F 51% 30.19 in 10.0 mi WNW 10.4 mph 16.1 mph N/A   Clear
2:55 AM 15.6 °F 2.5 °F -0.9 °F 48% 30.20 in 10.0 mi NW 11.5 mph 17.3 mph N/A   Clear
3:15 AM 15.4 °F 4.6 °F -1.5 °F 47% 30.20 in 10.0 mi WNW 8.1 mph 18.4 mph N/A   Clear
3:35 AM 14.9 °F 5.0 °F -1.5 °F 48% 30.20 in 10.0 mi WNW 6.9 mph - N/A   Clear
3:55 AM 14.7 °F 2.1 °F -1.7 °F 48% 30.21 in 10.0 mi WNW 10.4 mph - N/A   Clear
4:15 AM 14.2 °F 4.1 °F -2.0 °F 49% 30.21 in 10.0 mi WNW 6.9 mph - N/A   Clear
4:35 AM 13.8 °F 4.9 °F -2.2 °F 49% 30.20 in 10.0 mi WNW 5.8 mph - N/A   Clear
4:55 AM 13.5 °F 5.8 °F -1.7 °F 51% 30.22 in 10.0 mi WNW 4.6 mph - N/A   Clear
5:15 AM 13.1 °F 2.8 °F -1.3 °F 53% 30.22 in 10.0 mi WNW 6.9 mph - N/A   Clear
5:35 AM 12.9 °F 5.2 °F -0.8 °F 54% 30.23 in 10.0 mi WNW 4.6 mph - N/A   Clear
5:55 AM 12.7 °F 5.0 °F 0.3 °F 58% 30.24 in 10.0 mi West 4.6 mph - N/A   Clear
6:15 AM 12.2 °F - 0.3 °F 59% 30.24 in 10.0 mi Calm Calm - N/A   Clear
6:35 AM 12.2 °F 6.1 °F 0.1 °F 59% 30.24 in 10.0 mi NW 3.5 mph - N/A   Clear
6:55 AM 12.2 °F 4.3 °F 0.9 °F 60% 30.25 in 10.0 mi West 4.6 mph - N/A   Clear
7:15 AM 11.8 °F 1.3 °F 0.1 °F 59% 30.26 in 10.0 mi WNW 6.9 mph - N/A   Clear
7:35 AM 11.8 °F 5.7 °F 0.5 °F 60% 30.27 in 10.0 mi West 3.5 mph - N/A   Clear
7:55 AM 11.8 °F 2.5 °F 0.5 °F 60% 30.28 in 10.0 mi West 5.8 mph - N/A   Clear
8:15 AM 12.0 °F 1.5 °F 0.1 °F 59% 30.29 in 10.0 mi WNW 6.9 mph - N/A   Clear
8:35 AM 12.9 °F 1.6 °F 0.5 °F 58% 30.29 in 10.0 mi West 8.1 mph - N/A   Clear
8:55 AM 13.1 °F 5.4 °F 0.7 °F 58% 30.29 in 10.0 mi West 4.6 mph - N/A   Clear
9:15 AM 13.6 °F 1.6 °F 1.0 °F 57% 30.30 in 10.0 mi WSW 9.2 mph - N/A   Clear
9:35 AM 13.8 °F 2.7 °F 0.3 °F 55% 30.31 in 10.0 mi WSW 8.1 mph - N/A   Scattered Clouds
9:55 AM 14.9 °F 3.1 °F 0.7 °F 53% 30.31 in 10.0 mi West 9.2 mph - N/A   Scattered Clouds
10:15 AM 15.6 °F 4.0 °F 0.3 °F 51% 30.31 in 10.0 mi West 9.2 mph - N/A   Scattered Clouds
10:35 AM 16.0 °F 7.4 °F 0.3 °F 50% 30.32 in 10.0 mi WNW 5.8 mph - N/A   Scattered Clouds
10:55 AM 16.7 °F 11.2 °F 0.3 °F 49% 30.32 in 10.0 mi West 3.5 mph - N/A   Scattered Clouds
11:15 AM 16.7 °F 11.2 °F -0.8 °F 46% 30.32 in 10.0 mi WSW 3.5 mph - N/A   Scattered Clouds
11:35 AM 17.8 °F 7.5 °F -1.1 °F 44% 30.32 in 10.0 mi West 8.1 mph - N/A   Scattered Clouds
11:55 AM 19.2 °F 8.4 °F -0.2 °F 43% 30.31 in 10.0 mi WNW 9.2 mph - N/A   Scattered Clouds
12:15 PM 19.0 °F 10.0 °F -0.8 °F 42% 30.30 in 10.0 mi NW 6.9 mph - N/A   Clear
12:35 PM 20.3 °F 10.6 °F -0.2 °F 41% 30.29 in 10.0 mi WNW 8.1 mph - N/A   Clear
12:55 PM 19.9 °F 12.1 °F -1.3 °F 39% 30.28 in 10.0 mi WSW 5.8 mph 16.1 mph N/A   Clear
1:15 PM 20.8 °F 10.4 °F -0.8 °F 39% 30.27 in 10.0 mi NNW 9.2 mph - N/A   Scattered Clouds
1:35 PM 21.6 °F 12.1 °F -1.3 °F 37% 30.27 in 10.0 mi West 8.1 mph - N/A   Clear
1:55 PM 21.7 °F 11.5 °F -1.5 °F 36% 30.26 in 10.0 mi West 9.2 mph - N/A   Clear
2:15 PM 21.9 °F 10.4 °F -2.0 °F 35% 30.25 in 10.0 mi West 11.5 mph 16.1 mph N/A   Clear
2:35 PM 22.1 °F 12.8 °F -2.2 °F 35% 30.25 in 10.0 mi NW 8.1 mph 16.1 mph N/A   Clear
2:55 PM 22.6 °F 12.6 °F -2.0 °F 34% 30.25 in 10.0 mi West 9.2 mph - N/A   Clear
3:15 PM 22.6 °F 14.3 °F -3.3 °F 32% 30.24 in 10.0 mi WNW 6.9 mph - N/A   Clear
3:35 PM 23.4 °F 16.2 °F -2.7 °F 32% 30.25 in 10.0 mi West 5.8 mph - N/A   Clear
3:55 PM 23.0 °F 14.7 °F -3.6 °F 31% 30.25 in 10.0 mi WNW 6.9 mph - N/A   Clear
4:15 PM 23.5 °F 15.4 °F -2.6 °F 32% 30.26 in 10.0 mi WNW 6.9 mph - N/A   Clear
4:35 PM 22.3 °F 13.0 °F -3.1 °F 33% 30.27 in 10.0 mi WNW 8.1 mph - N/A   Clear
4:55 PM 21.9 °F 14.5 °F -2.2 °F 35% 30.27 in 10.0 mi WNW 5.8 mph - N/A   Clear
5:15 PM 21.9 °F 13.4 °F -2.9 °F 34% 30.26 in 10.0 mi West 6.9 mph - N/A   Clear
5:35 PM 21.2 °F 13.6 °F -3.3 °F 34% 30.27 in 10.0 mi WNW 5.8 mph - N/A   Clear
6:15 PM 20.7 °F 14.2 °F -3.5 °F 35% 30.27 in 10.0 mi West 4.6 mph - N/A   Clear
6:35 PM 20.3 °F 13.8 °F -3.1 °F 36% 30.27 in 10.0 mi West 4.6 mph - N/A   Clear
6:55 PM 19.8 °F 14.7 °F -3.1 °F 37% 30.27 in 10.0 mi NW 3.5 mph - N/A   Clear
7:15 PM 19.2 °F 12.5 °F -3.1 °F 37% 30.27 in 10.0 mi NW 4.6 mph - N/A   Clear
7:35 PM 18.5 °F 10.4 °F -2.9 °F 39% 30.27 in 10.0 mi NNW 5.8 mph - N/A   Clear
7:55 PM 18.5 °F 10.4 °F -2.7 °F 39% 30.29 in 10.0 mi NW 5.8 mph - N/A   Clear
8:15 PM 18.3 °F 13.1 °F -2.4 °F 40% 30.29 in 10.0 mi WNW 3.5 mph - N/A   Clear
8:35 PM 18.1 °F 12.9 °F -2.9 °F 39% 30.29 in 10.0 mi WNW 3.5 mph - N/A   Clear
8:55 PM 17.4 °F - -2.0 °F 42% 30.29 in 10.0 mi Calm Calm - N/A   Clear
9:15 PM 17.4 °F 12.1 °F -2.2 °F 42% 30.29 in 10.0 mi WNW 3.5 mph - N/A   Clear
9:35 PM 17.6 °F - -2.4 °F 41% 30.29 in 10.0 mi Calm Calm - N/A   Clear
9:55 PM 16.9 °F 11.5 °F -2.2 °F 43% 30.29 in 10.0 mi WNW 3.5 mph - N/A   Clear
10:15 PM 17.1 °F 11.7 °F -2.2 °F 43% 30.29 in 10.0 mi West 3.5 mph - N/A   Mostly Cloudy
10:35 PM 16.5 °F - -1.7 °F 45% 30.30 in 10.0 mi Calm Calm - N/A   Scattered Clouds
10:55 PM 16.3 °F - -1.8 °F 45% 30.29 in 10.0 mi Calm Calm - N/A   Scattered Clouds
11:15 PM 17.2 °F 11.9 °F -0.6 °F 46% 30.30 in 10.0 mi WNW 3.5 mph - N/A   Overcast
11:35 PM 16.9 °F - 0.7 °F 49% 30.29 in 10.0 mi Calm Calm - N/A   Overcast
11:55 PM 17.2 °F - 1.4 °F 50% 30.30 in 10.0 mi Calm Calm - N/A   Overcast